Time,TemperatureF,DewpointF,PressureIn,WindDirection,WindDirectionDegrees,WindSpeedMPH,WindSpeedGustMPH,Humidity,HourlyPrecipIn,Conditions,Clouds,dailyrainin,SolarRadiationWatts/m^2,SoftwareType,DateUTC
2013-04-30 00:00:00,56.8,51.0,29.65,South,191,0.0,0.0,81,0.00,,SCT055,0.00,0.00,VWS V14.01,2013-04-30 05:00:00,
2013-04-30 00:01:00,56.8,51.0,29.65,South,191,0.0,0.0,81,0.00,,---,0.00,,VWS V14.01,2013-04-30 05:01:00,
2013-04-30 00:06:00,56.7,51.3,29.65,South,191,0.0,0.0,82,0.00,,---,0.00,,VWS V14.01,2013-04-30 05:06:00,
2013-04-30 00:10:00,56.6,51.2,29.65,South,191,0.0,0.0,82,0.00,,SCT055,0.00,0.00,VWS V14.01,2013-04-30 05:10:00,
2013-04-30 00:11:00,56.6,51.2,29.65,South,191,0.0,0.0,82,0.00,,---,0.00,,VWS V14.01,2013-04-30 05:11:00,
2013-04-30 00:16:00,56.5,51.1,29.66,South,191,0.0,0.0,82,0.00,,---,0.00,,VWS V14.01,2013-04-30 05:16:00,
2013-04-30 00:20:00,56.4,51.0,29.66,South,191,0.0,0.0,82,0.00,,SCT055,0.00,0.00,VWS V14.01,2013-04-30 05:20:00,
2013-04-30 00:21:00,56.4,51.0,29.66,South,191,0.0,0.0,82,0.00,,---,0.00,,VWS V14.01,2013-04-30 05:21:00,
2013-04-30 00:26:00,56.3,50.9,29.66,South,191,0.0,0.0,82,0.00,,---,0.00,,VWS V14.01,2013-04-30 05:26:00,
2013-04-30 00:30:00,56.3,51.2,29.65,South,191,0.0,0.0,83,0.00,,SCT055,0.00,0.00,VWS V14.01,2013-04-30 05:30:00,
2013-04-30 00:31:00,56.2,51.1,29.66,South,191,0.0,0.0,83,0.00,,---,0.00,,VWS V14.01,2013-04-30 05:31:00,
2013-04-30 00:36:00,56.1,51.0,29.66,South,191,0.0,0.0,83,0.00,,---,0.00,,VWS V14.01,2013-04-30 05:36:00,
2013-04-30 00:40:00,56.0,50.6,29.66,South,191,0.0,0.0,82,0.00,,SCT055,0.00,0.00,VWS V14.01,2013-04-30 05:40:00,
2013-04-30 00:41:00,56.0,50.6,29.65,South,191,0.0,0.0,82,0.00,,---,0.00,,VWS V14.01,2013-04-30 05:41:00,
2013-04-30 00:46:00,55.8,50.4,29.65,South,191,0.0,0.0,82,0.00,,---,0.00,,VWS V14.01,2013-04-30 05:46:00,
2013-04-30 00:50:00,55.7,50.3,29.65,South,191,0.0,0.0,82,0.00,,SCT055,0.00,0.00,VWS V14.01,2013-04-30 05:50:00,
2013-04-30 00:51:00,55.6,50.5,29.65,South,191,0.0,0.0,83,0.00,,---,0.00,,VWS V14.01,2013-04-30 05:51:00,
2013-04-30 00:56:00,55.6,50.5,29.65,South,191,0.0,0.0,83,0.00,,---,0.00,,VWS V14.01,2013-04-30 05:56:00,
2013-04-30 01:00:00,55.5,50.4,29.65,South,191,0.0,0.0,83,0.00,,SCT055,0.00,0.00,VWS V14.01,2013-04-30 06:00:00,
2013-04-30 01:01:00,55.4,50.3,29.65,South,191,0.0,0.0,83,0.00,,---,0.00,,VWS V14.01,2013-04-30 06:01:00,
2013-04-30 01:06:00,55.4,50.3,29.65,South,191,0.0,0.0,83,0.00,,---,0.00,,VWS V14.01,2013-04-30 06:06:00,
2013-04-30 01:10:00,55.3,50.2,29.65,South,191,0.0,0.0,83,0.00,,SCT055,0.00,0.00,VWS V14.01,2013-04-30 06:10:00,
2013-04-30 01:11:00,55.3,50.6,29.64,South,191,0.0,0.0,84,0.00,,---,0.00,,VWS V14.01,2013-04-30 06:11:00,
2013-04-30 01:16:00,55.2,50.5,29.64,South,191,0.0,0.0,84,0.00,,---,0.00,,VWS V14.01,2013-04-30 06:16:00,
2013-04-30 01:20:00,55.2,50.5,29.64,South,191,0.0,0.0,84,0.00,,SCT055,0.00,0.00,VWS V14.01,2013-04-30 06:20:00,
2013-04-30 01:21:00,55.2,50.5,29.64,South,191,0.0,0.0,84,0.00,,---,0.00,,VWS V14.01,2013-04-30 06:21:00,
2013-04-30 01:26:00,55.2,50.5,29.64,South,191,0.0,0.0,84,0.00,,---,0.00,,VWS V14.01,2013-04-30 06:26:00,
2013-04-30 01:30:00,55.2,50.8,29.64,South,191,0.0,0.0,85,0.00,,SCT055,0.00,0.00,VWS V14.01,2013-04-30 06:30:00,
2013-04-30 01:31:00,55.2,50.8,29.64,South,191,0.0,0.0,85,0.00,,---,0.00,,VWS V14.01,2013-04-30 06:31:00,
2013-04-30 01:36:00,55.3,50.9,29.64,South,191,0.0,0.0,85,0.00,,---,0.00,,VWS V14.01,2013-04-30 06:36:00,
2013-04-30 01:40:00,55.4,51.3,29.64,South,191,0.0,0.0,86,0.00,,SCT055,0.00,0.00,VWS V14.01,2013-04-30 06:40:00,
2013-04-30 01:41:00,55.5,51.4,29.64,South,191,0.0,0.0,86,0.00,,---,0.00,,VWS V14.01,2013-04-30 06:41:00,
2013-04-30 01:46:00,55.7,51.6,29.64,South,191,0.0,0.0,86,0.00,,---,0.00,,VWS V14.01,2013-04-30 06:46:00,
2013-04-30 01:50:00,55.8,51.7,29.63,South,191,0.0,0.0,86,0.00,,SCT055,0.00,0.00,VWS V14.01,2013-04-30 06:50:00,
2013-04-30 01:51:00,55.8,51.7,29.63,South,191,0.0,0.0,86,0.00,,---,0.00,,VWS V14.01,2013-04-30 06:51:00,
2013-04-30 01:56:00,55.8,51.7,29.63,South,191,0.0,0.0,86,0.00,,---,0.00,,VWS V14.01,2013-04-30 06:56:00,
2013-04-30 02:00:00,55.9,51.8,29.63,South,191,0.0,0.0,86,0.00,,SCT055,0.00,0.00,VWS V14.01,2013-04-30 07:00:00,
2013-04-30 02:01:00,55.9,51.8,29.63,South,191,0.0,0.0,86,0.00,,---,0.00,,VWS V14.01,2013-04-30 07:01:00,
2013-04-30 02:06:00,55.9,51.8,29.62,South,191,0.0,0.0,86,0.00,,---,0.00,,VWS V14.01,2013-04-30 07:06:00,
2013-04-30 02:10:00,56.0,51.9,29.63,South,191,0.0,0.0,86,0.00,,SCT055,0.00,0.00,VWS V14.01,2013-04-30 07:10:00,
2013-04-30 02:11:00,55.9,51.8,29.62,South,191,0.0,0.0,86,0.00,,---,0.00,,VWS V14.01,2013-04-30 07:11:00,
2013-04-30 02:16:00,55.9,51.8,29.62,South,191,0.0,0.0,86,0.00,,---,0.00,,VWS V14.01,2013-04-30 07:16:00,
2013-04-30 02:20:00,55.9,51.8,29.62,South,191,0.0,0.0,86,0.00,,SCT055,0.00,0.00,VWS V14.01,2013-04-30 07:20:00,
2013-04-30 02:21:00,55.9,51.8,29.62,South,191,0.0,0.0,86,0.00,,---,0.00,,VWS V14.01,2013-04-30 07:21:00,
2013-04-30 02:26:00,55.9,51.8,29.62,South,191,0.0,0.0,86,0.00,,---,0.00,,VWS V14.01,2013-04-30 07:26:00,
2013-04-30 02:30:00,55.9,51.8,29.61,South,191,0.0,0.0,86,0.00,,SCT055,0.00,0.00,VWS V14.01,2013-04-30 07:30:00,
2013-04-30 02:31:00,55.9,51.8,29.61,South,191,0.0,0.0,86,0.00,,---,0.00,,VWS V14.01,2013-04-30 07:31:00,
2013-04-30 02:36:00,55.9,51.8,29.61,South,191,0.0,0.0,86,0.00,,---,0.00,,VWS V14.01,2013-04-30 07:36:00,
2013-04-30 02:40:00,55.8,51.7,29.61,South,191,0.0,0.0,86,0.00,,SCT055,0.00,0.00,VWS V14.01,2013-04-30 07:40:00,
2013-04-30 02:41:00,55.8,51.7,29.61,South,191,0.0,0.0,86,0.00,,---,0.00,,VWS V14.01,2013-04-30 07:41:00,
2013-04-30 02:46:00,55.8,51.7,29.62,South,191,0.0,0.0,86,0.00,,---,0.00,,VWS V14.01,2013-04-30 07:46:00,
2013-04-30 02:50:00,55.7,51.6,29.62,South,191,0.0,0.0,86,0.00,,SCT055,0.00,0.00,VWS V14.01,2013-04-30 07:50:00,
2013-04-30 02:51:00,55.8,51.7,29.61,South,191,0.0,0.0,86,0.00,,---,0.00,,VWS V14.01,2013-04-30 07:51:00,
2013-04-30 02:56:00,55.8,52.0,29.62,South,191,0.0,0.0,87,0.00,,---,0.00,,VWS V14.01,2013-04-30 07:56:00,
2013-04-30 03:00:00,55.8,52.0,29.63,South,191,0.0,0.0,87,0.00,,SCT055,0.00,0.00,VWS V14.01,2013-04-30 08:00:00,
2013-04-30 03:01:00,55.9,52.1,29.63,South,191,0.0,0.0,87,0.00,,---,0.00,,VWS V14.01,2013-04-30 08:01:00,
2013-04-30 03:06:00,55.8,52.0,29.62,South,191,0.0,0.0,87,0.00,,---,0.00,,VWS V14.01,2013-04-30 08:06:00,
2013-04-30 03:10:00,55.9,52.1,29.62,South,191,0.0,0.0,87,0.00,,SCT055,0.00,0.00,VWS V14.01,2013-04-30 08:10:00,
2013-04-30 03:11:00,55.9,52.1,29.62,South,191,0.0,0.0,87,0.00,,---,0.00,,VWS V14.01,2013-04-30 08:11:00,
2013-04-30 03:16:00,55.9,52.1,29.62,South,191,0.0,0.0,87,0.00,,---,0.00,,VWS V14.01,2013-04-30 08:16:00,
2013-04-30 03:20:00,55.9,52.1,29.61,South,191,0.0,0.0,87,0.00,,SCT055,0.00,0.00,VWS V14.01,2013-04-30 08:20:00,
2013-04-30 03:21:00,55.8,52.0,29.62,South,191,0.0,0.0,87,0.00,,---,0.00,,VWS V14.01,2013-04-30 08:21:00,
2013-04-30 03:26:00,55.8,52.0,29.61,South,191,0.0,0.0,87,0.00,,---,0.00,,VWS V14.01,2013-04-30 08:26:00,
2013-04-30 03:30:00,55.8,52.0,29.62,South,191,0.0,0.0,87,0.00,,SCT055,0.00,0.00,VWS V14.01,2013-04-30 08:30:00,
2013-04-30 03:31:00,55.8,52.0,29.62,South,191,0.0,0.0,87,0.00,,---,0.00,,VWS V14.01,2013-04-30 08:31:00,
2013-04-30 03:36:00,55.8,52.0,29.62,South,191,0.0,0.0,87,0.00,,---,0.00,,VWS V14.01,2013-04-30 08:36:00,
2013-04-30 03:40:00,55.8,52.0,29.62,South,191,0.0,0.0,87,0.00,,SCT055,0.00,0.00,VWS V14.01,2013-04-30 08:40:00,
2013-04-30 03:41:00,55.8,52.0,29.62,South,191,0.0,0.0,87,0.00,,---,0.00,,VWS V14.01,2013-04-30 08:41:00,
2013-04-30 03:46:00,55.7,51.9,29.63,South,191,0.0,0.0,87,0.00,,---,0.00,,VWS V14.01,2013-04-30 08:46:00,
2013-04-30 03:50:00,55.7,51.9,29.63,South,191,0.0,0.0,87,0.00,,SCT055,0.00,0.00,VWS V14.01,2013-04-30 08:50:00,
2013-04-30 03:51:00,55.7,51.9,29.62,South,191,0.0,0.0,87,0.00,,---,0.00,,VWS V14.01,2013-04-30 08:51:00,
2013-04-30 03:56:00,55.7,52.2,29.62,South,191,0.0,0.0,88,0.00,,---,0.00,,VWS V14.01,2013-04-30 08:56:00,
2013-04-30 04:00:00,55.8,52.3,29.61,South,191,0.0,0.0,88,0.00,,SCT055,0.00,0.00,VWS V14.01,2013-04-30 09:00:00,
2013-04-30 04:01:00,55.8,52.3,29.61,South,191,0.0,0.0,88,0.00,,---,0.00,,VWS V14.01,2013-04-30 09:01:00,
2013-04-30 04:06:00,55.9,52.4,29.62,South,191,1.0,1.0,88,0.00,,---,0.00,,VWS V14.01,2013-04-30 09:06:00,
2013-04-30 04:10:00,55.9,52.4,29.64,South,191,0.0,2.0,88,0.00,,SCT055,0.00,0.00,VWS V14.01,2013-04-30 09:10:00,
2013-04-30 04:11:00,55.9,52.4,29.64,South,191,0.0,0.0,88,0.00,,---,0.00,,VWS V14.01,2013-04-30 09:11:00,
2013-04-30 04:16:00,56.0,52.5,29.63,South,191,0.0,0.0,88,0.00,,---,0.00,,VWS V14.01,2013-04-30 09:16:00,
2013-04-30 04:20:00,56.1,52.6,29.63,South,191,0.0,0.0,88,0.00,,SCT055,0.00,0.00,VWS V14.01,2013-04-30 09:20:00,
2013-04-30 04:21:00,56.2,52.7,29.63,South,191,0.0,0.0,88,0.00,,---,0.00,,VWS V14.01,2013-04-30 09:21:00,
2013-04-30 04:26:00,56.4,53.2,29.63,South,191,0.0,0.0,89,0.00,,---,0.00,,VWS V14.01,2013-04-30 09:26:00,
2013-04-30 04:30:00,56.6,53.4,29.62,South,191,0.0,1.0,89,0.00,,SCT055,0.00,0.00,VWS V14.01,2013-04-30 09:30:00,
2013-04-30 04:31:00,56.6,53.4,29.62,South,191,0.0,1.0,89,0.00,,---,0.00,,VWS V14.01,2013-04-30 09:31:00,
2013-04-30 04:36:00,56.6,53.1,29.62,South,191,0.0,2.0,88,0.00,,---,0.00,,VWS V14.01,2013-04-30 09:36:00,
2013-04-30 04:40:00,56.7,53.2,29.62,South,191,0.0,2.0,88,0.00,,SCT055,0.00,0.00,VWS V14.01,2013-04-30 09:40:00,
2013-04-30 04:41:00,56.8,53.3,29.62,South,191,0.0,0.0,88,0.00,,---,0.00,,VWS V14.01,2013-04-30 09:41:00,
2013-04-30 04:46:00,56.8,53.3,29.61,South,191,0.0,1.0,88,0.00,,---,0.00,,VWS V14.01,2013-04-30 09:46:00,
2013-04-30 04:50:00,56.9,53.4,29.62,South,191,0.0,2.0,88,0.00,,SCT055,0.00,0.00,VWS V14.01,2013-04-30 09:50:00,
2013-04-30 04:51:00,57.0,53.5,29.62,South,191,0.0,0.0,88,0.00,,---,0.00,,VWS V14.01,2013-04-30 09:51:00,
2013-04-30 04:56:00,57.1,53.6,29.62,South,191,0.0,2.0,88,0.00,,---,0.00,,VWS V14.01,2013-04-30 09:56:00,
2013-04-30 05:00:00,57.3,53.8,29.61,South,191,0.0,3.0,88,0.00,,SCT055,0.00,0.00,VWS V14.01,2013-04-30 10:00:00,
2013-04-30 05:01:00,57.4,53.9,29.61,South,191,1.0,2.0,88,0.00,,---,0.00,,VWS V14.01,2013-04-30 10:01:00,
2013-04-30 05:06:00,58.0,54.5,29.61,South,183,1.0,5.0,88,0.00,,---,0.00,,VWS V14.01,2013-04-30 10:06:00,
2013-04-30 05:10:00,58.5,55.0,29.60,South,183,0.0,5.0,88,0.00,,SCT055,0.00,0.00,VWS V14.01,2013-04-30 10:10:00,
2013-04-30 05:11:00,58.6,54.8,29.60,South,183,3.0,3.0,87,0.00,,---,0.00,,VWS V14.01,2013-04-30 10:11:00,
2013-04-30 05:16:00,58.9,55.0,29.60,South,183,0.0,4.0,87,0.00,,---,0.00,,VWS V14.01,2013-04-30 10:16:00,
2013-04-30 05:20:00,59.3,55.4,29.60,South,183,1.0,4.0,87,0.00,,SCT055,0.00,0.00,VWS V14.01,2013-04-30 10:20:00,
2013-04-30 05:21:00,59.3,55.1,29.60,South,183,0.0,1.0,86,0.00,,---,0.00,,VWS V14.01,2013-04-30 10:21:00,
2013-04-30 05:26:00,59.5,55.3,29.59,South,183,0.0,2.0,86,0.00,,---,0.00,,VWS V14.01,2013-04-30 10:26:00,
2013-04-30 05:30:00,59.5,55.3,29.58,South,183,0.0,2.0,86,0.00,,SCT055,0.00,0.00,VWS V14.01,2013-04-30 10:30:00,
2013-04-30 05:31:00,59.5,55.3,29.58,South,183,2.0,2.0,86,0.00,,---,0.00,,VWS V14.01,2013-04-30 10:31:00,
2013-04-30 05:36:00,59.5,55.3,29.58,South,183,0.0,2.0,86,0.00,,---,0.00,,VWS V14.01,2013-04-30 10:36:00,
2013-04-30 05:40:00,59.5,55.3,29.58,South,183,0.0,2.0,86,0.00,,SCT055,0.00,0.00,VWS V14.01,2013-04-30 10:40:00,
2013-04-30 05:41:00,59.5,55.3,29.58,South,183,0.0,1.0,86,0.00,,---,0.00,,VWS V14.01,2013-04-30 10:41:00,
2013-04-30 05:46:00,59.5,55.0,29.58,South,183,0.0,1.0,85,0.00,,---,0.00,,VWS V14.01,2013-04-30 10:46:00,
2013-04-30 05:50:00,59.6,54.8,29.59,SSW,195,2.0,4.0,84,0.00,,SCT055,0.00,0.00,VWS V14.01,2013-04-30 10:50:00,
2013-04-30 05:51:00,59.7,54.9,29.59,SSW,195,3.0,3.0,84,0.00,,---,0.00,,VWS V14.01,2013-04-30 10:51:00,
2013-04-30 05:56:00,60.1,54.9,29.61,SSE,157,0.0,7.0,83,0.00,,---,0.00,,VWS V14.01,2013-04-30 10:56:00,
2013-04-30 06:00:00,60.5,55.3,29.61,SSW,194,2.0,7.0,83,0.00,,SCT055,0.00,0.00,VWS V14.01,2013-04-30 11:00:00,
2013-04-30 06:01:00,60.5,55.3,29.61,South,175,4.0,5.0,83,0.00,,---,0.00,,VWS V14.01,2013-04-30 11:01:00,
2013-04-30 06:06:00,61.0,55.5,29.61,South,178,2.0,5.0,82,0.00,,---,0.00,,VWS V14.01,2013-04-30 11:06:00,
2013-04-30 06:10:00,61.1,55.6,29.61,South,179,4.0,6.0,82,0.00,,SCT055,0.00,5.00,VWS V14.01,2013-04-30 11:10:00,
2013-04-30 06:11:00,61.1,55.6,29.61,South,184,1.0,4.0,82,0.00,,---,0.00,,VWS V14.01,2013-04-30 11:11:00,
2013-04-30 06:16:00,61.1,55.6,29.61,SSE,158,2.0,7.0,82,0.00,,---,0.00,,VWS V14.01,2013-04-30 11:16:00,
2013-04-30 06:20:00,60.9,55.4,29.61,South,182,3.0,7.0,82,0.00,,SCT055,0.00,12.00,VWS V14.01,2013-04-30 11:20:00,
2013-04-30 06:21:00,60.9,55.4,29.61,South,182,1.0,3.0,82,0.00,,---,0.00,,VWS V14.01,2013-04-30 11:21:00,
2013-04-30 06:26:00,60.8,55.3,29.61,South,188,0.0,5.0,82,0.00,,---,0.00,,VWS V14.01,2013-04-30 11:26:00,
2013-04-30 06:30:00,60.7,55.2,29.61,South,187,0.0,5.0,82,0.00,,SCT055,0.00,19.00,VWS V14.01,2013-04-30 11:30:00,
2013-04-30 06:31:00,60.6,55.1,29.61,South,187,0.0,1.0,82,0.00,,---,0.00,,VWS V14.01,2013-04-30 11:31:00,
2013-04-30 06:36:00,60.5,55.3,29.61,South,188,1.0,5.0,83,0.00,,---,0.00,,VWS V14.01,2013-04-30 11:36:00,
2013-04-30 06:40:00,60.4,55.2,29.60,SSW,196,0.0,6.0,83,0.00,,SCT055,0.00,25.00,VWS V14.01,2013-04-30 11:40:00,
2013-04-30 06:41:00,60.4,55.2,29.60,SSW,196,0.0,1.0,83,0.00,,---,0.00,,VWS V14.01,2013-04-30 11:41:00,
2013-04-30 06:46:00,60.4,55.2,29.60,South,188,0.0,3.0,83,0.00,,---,0.00,,VWS V14.01,2013-04-30 11:46:00,
2013-04-30 06:50:00,60.4,55.2,29.60,South,186,4.0,4.0,83,0.00,,SCT055,0.00,32.00,VWS V14.01,2013-04-30 11:50:00,
2013-04-30 06:51:00,60.5,55.3,29.60,South,186,4.0,4.0,83,0.00,,---,0.00,,VWS V14.01,2013-04-30 11:51:00,
2013-04-30 06:56:00,60.5,55.0,29.60,South,184,0.0,4.0,82,0.00,,---,0.00,,VWS V14.01,2013-04-30 11:56:00,
2013-04-30 07:00:00,60.5,55.0,29.60,South,184,0.0,4.0,82,0.00,,SCT055,0.00,37.00,VWS V14.01,2013-04-30 12:00:00,
2013-04-30 07:01:00,60.5,55.0,29.60,South,184,0.0,1.0,82,0.00,,---,0.00,,VWS V14.01,2013-04-30 12:01:00,
2013-04-30 07:06:00,60.6,55.1,29.60,South,184,0.0,3.0,82,0.00,,---,0.00,,VWS V14.01,2013-04-30 12:06:00,
2013-04-30 07:10:00,60.7,55.2,29.60,South,184,2.0,3.0,82,0.00,,SCT055,0.00,44.00,VWS V14.01,2013-04-30 12:10:00,
2013-04-30 07:11:00,60.8,55.3,29.60,South,184,0.0,2.0,82,0.00,,---,0.00,,VWS V14.01,2013-04-30 12:11:00,
2013-04-30 07:16:00,61.0,55.1,29.60,South,177,2.0,4.0,81,0.00,,---,0.00,,VWS V14.01,2013-04-30 12:16:00,
2013-04-30 07:20:00,61.2,55.0,29.60,South,176,2.0,4.0,80,0.00,,SCT055,0.00,53.00,VWS V14.01,2013-04-30 12:20:00,
2013-04-30 07:21:00,61.3,55.1,29.60,South,177,2.0,4.0,80,0.00,,---,0.00,,VWS V14.01,2013-04-30 12:21:00,
2013-04-30 07:26:00,61.6,55.4,29.60,SSW,196,1.0,6.0,80,0.00,,---,0.00,,VWS V14.01,2013-04-30 12:26:00,
2013-04-30 07:30:00,61.8,55.2,29.60,SSW,196,1.0,6.0,79,0.00,,SCT055,0.00,62.00,VWS V14.01,2013-04-30 12:30:00,
2013-04-30 07:31:00,61.9,55.3,29.60,SSW,196,0.0,2.0,79,0.00,,---,0.00,,VWS V14.01,2013-04-30 12:31:00,
2013-04-30 07:36:00,62.2,55.3,29.60,South,173,0.0,6.0,78,0.00,,---,0.00,,VWS V14.01,2013-04-30 12:36:00,
2013-04-30 07:40:00,62.6,54.9,29.59,South,180,1.0,2.0,76,0.00,,---,0.00,,VWS V14.01,2013-04-30 12:40:00,
2013-04-30 07:45:00,63.1,55.4,29.59,South,184,2.0,3.0,76,0.00,,---,0.00,,VWS V14.01,2013-04-30 12:45:00,
2013-04-30 07:50:00,63.6,55.2,29.58,South,188,4.0,4.0,74,0.00,,---,0.00,,VWS V14.01,2013-04-30 12:50:00,
2013-04-30 07:55:00,63.9,55.5,29.58,South,170,1.0,6.0,74,0.00,,---,0.00,,VWS V14.01,2013-04-30 12:55:00,
2013-04-30 08:00:00,64.1,55.3,29.58,South,177,1.0,1.0,73,0.00,,---,0.00,,VWS V14.01,2013-04-30 13:00:00,
2013-04-30 08:05:00,64.1,55.3,29.58,SSW,198,1.0,6.0,73,0.00,,---,0.00,,VWS V14.01,2013-04-30 13:05:00,
2013-04-30 08:10:00,64.1,54.9,29.58,South,183,3.0,3.0,72,0.00,,---,0.00,,VWS V14.01,2013-04-30 13:10:00,
2013-04-30 08:15:00,64.1,55.3,29.57,South,186,2.0,4.0,73,0.00,,---,0.00,,VWS V14.01,2013-04-30 13:15:00,
2013-04-30 08:20:00,64.0,55.2,29.57,South,190,3.0,3.0,73,0.00,,---,0.00,,VWS V14.01,2013-04-30 13:20:00,
2013-04-30 08:25:00,64.0,55.2,29.57,SSW,194,1.0,7.0,73,0.00,,---,0.00,,VWS V14.01,2013-04-30 13:25:00,
2013-04-30 08:30:00,64.1,54.9,29.57,SSW,196,1.0,4.0,72,0.00,,---,0.00,,VWS V14.01,2013-04-30 13:30:00,
2013-04-30 08:35:00,64.3,54.7,29.57,SSW,205,4.0,6.0,71,0.00,,---,0.00,,VWS V14.01,2013-04-30 13:35:00,
2013-04-30 08:40:00,64.6,54.6,29.58,South,191,7.0,7.0,70,0.00,,---,0.00,,VWS V14.01,2013-04-30 13:40:00,
2013-04-30 08:45:00,65.0,55.0,29.58,South,182,2.0,9.0,70,0.00,,---,0.00,,VWS V14.01,2013-04-30 13:45:00,
2013-04-30 08:50:00,65.2,54.8,29.58,SSW,192,1.0,3.0,69,0.00,,---,0.00,,VWS V14.01,2013-04-30 13:50:00,
2013-04-30 08:55:00,65.5,55.1,29.58,South,186,4.0,6.0,69,0.00,,---,0.00,,VWS V14.01,2013-04-30 13:55:00,
2013-04-30 09:00:00,65.9,55.5,29.58,South,186,0.0,2.0,69,0.00,,---,0.00,,VWS V14.01,2013-04-30 14:00:00,
2013-04-30 09:05:00,66.1,55.7,29.58,SSE,168,2.0,6.0,69,0.00,,---,0.00,,VWS V14.01,2013-04-30 14:05:00,
2013-04-30 09:10:00,66.4,55.9,29.58,South,179,1.0,1.0,69,0.00,,---,0.00,,VWS V14.01,2013-04-30 14:10:00,
2013-04-30 09:15:00,66.9,56.8,29.58,SSW,193,1.0,9.0,70,0.00,,---,0.00,,VWS V14.01,2013-04-30 14:15:00,
2013-04-30 09:20:00,67.4,56.9,29.57,South,184,0.0,1.0,69,0.00,,---,0.00,,VWS V14.01,2013-04-30 14:20:00,
2013-04-30 09:25:00,67.9,57.0,29.57,SSW,196,0.0,9.0,68,0.00,,---,0.00,,VWS V14.01,2013-04-30 14:25:00,
2013-04-30 09:30:00,68.4,57.0,29.57,South,180,2.0,4.0,67,0.00,,---,0.00,,VWS V14.01,2013-04-30 14:30:00,
2013-04-30 09:35:00,68.9,57.5,29.58,South,179,3.0,9.0,67,0.00,,---,0.00,,VWS V14.01,2013-04-30 14:35:00,
2013-04-30 09:40:00,69.2,57.4,29.58,SSE,167,3.0,3.0,66,0.00,,---,0.00,,VWS V14.01,2013-04-30 14:40:00,
2013-04-30 09:45:00,69.4,57.6,29.58,South,188,2.0,6.0,66,0.00,,---,0.00,,VWS V14.01,2013-04-30 14:45:00,
2013-04-30 09:50:00,69.7,57.8,29.58,South,177,2.0,2.0,66,0.00,,---,0.00,,VWS V14.01,2013-04-30 14:50:00,
2013-04-30 09:55:00,69.9,58.0,29.59,SSE,167,0.0,6.0,66,0.00,,---,0.00,,VWS V14.01,2013-04-30 14:55:00,
2013-04-30 10:00:00,70.3,58.0,29.59,South,190,2.0,3.0,65,0.00,,---,0.00,,VWS V14.01,2013-04-30 15:00:00,
2013-04-30 10:05:00,70.7,58.4,29.59,SSW,202,1.0,8.0,65,0.00,,---,0.00,,VWS V14.01,2013-04-30 15:05:00,
2013-04-30 10:10:00,71.0,58.2,29.59,SSW,192,3.0,5.0,64,0.00,,---,0.00,,VWS V14.01,2013-04-30 15:10:00,
2013-04-30 10:15:00,71.3,58.5,29.59,SSW,199,0.0,6.0,64,0.00,,---,0.00,,VWS V14.01,2013-04-30 15:15:00,
2013-04-30 10:20:00,71.6,58.3,29.59,South,180,1.0,2.0,63,0.00,,---,0.00,,VWS V14.01,2013-04-30 15:20:00,
2013-04-30 10:25:00,72.0,58.7,29.59,SSW,201,2.0,5.0,63,0.00,,---,0.00,,VWS V14.01,2013-04-30 15:25:00,
2013-04-30 10:30:00,72.4,58.2,29.59,South,190,0.0,2.0,61,0.00,,---,0.00,,VWS V14.01,2013-04-30 15:30:00,
2013-04-30 10:35:00,72.8,58.1,29.59,South,174,2.0,6.0,60,0.00,,---,0.00,,VWS V14.01,2013-04-30 15:35:00,
2013-04-30 10:40:00,73.1,58.4,29.59,SSW,207,4.0,9.0,60,0.00,,---,0.00,,VWS V14.01,2013-04-30 15:40:00,
2013-04-30 10:45:00,73.5,58.8,29.58,South,179,2.0,9.0,60,0.00,,---,0.00,,VWS V14.01,2013-04-30 15:45:00,
2013-04-30 10:50:00,73.9,58.7,29.58,SSE,160,1.0,2.0,59,0.00,,---,0.00,,VWS V14.01,2013-04-30 15:50:00,
2013-04-30 10:55:00,74.2,58.5,29.58,SSW,206,0.0,5.0,58,0.00,,---,0.00,,VWS V14.01,2013-04-30 15:55:00,
2013-04-30 11:00:00,74.5,58.8,29.58,SSW,194,4.0,4.0,58,0.00,,---,0.00,,VWS V14.01,2013-04-30 16:00:00,
2013-04-30 11:05:00,74.9,58.7,29.58,SSW,194,7.0,7.0,57,0.00,,---,0.00,,VWS V14.01,2013-04-30 16:05:00,
2013-04-30 11:10:00,75.2,58.9,29.58,SSE,168,4.0,4.0,57,0.00,,---,0.00,,VWS V14.01,2013-04-30 16:10:00,
2013-04-30 11:15:00,75.3,58.5,29.58,SSW,193,2.0,10.0,56,0.00,,---,0.00,,VWS V14.01,2013-04-30 16:15:00,
2013-04-30 11:20:00,75.7,58.4,29.58,SSW,204,2.0,3.0,55,0.00,,---,0.00,,VWS V14.01,2013-04-30 16:20:00,
2013-04-30 11:25:00,76.0,59.2,29.58,South,188,1.0,6.0,56,0.00,,---,0.00,,VWS V14.01,2013-04-30 16:25:00,
2013-04-30 11:30:00,76.3,59.0,29.58,South,174,2.0,6.0,55,0.00,,---,0.00,,VWS V14.01,2013-04-30 16:30:00,
2013-04-30 11:35:00,76.6,58.2,29.58,South,182,6.0,6.0,53,0.00,,---,0.00,,VWS V14.01,2013-04-30 16:35:00,
2013-04-30 11:40:00,76.9,58.5,29.58,South,178,3.0,4.0,53,0.00,,---,0.00,,VWS V14.01,2013-04-30 16:40:00,
2013-04-30 11:45:00,77.1,58.7,29.57,South,189,5.0,6.0,53,0.00,,---,0.00,,VWS V14.01,2013-04-30 16:45:00,
2013-04-30 11:50:00,77.5,57.4,29.57,SSW,196,5.0,6.0,50,0.00,,---,0.00,,VWS V14.01,2013-04-30 16:50:00,
2013-04-30 11:55:00,77.8,57.1,29.57,South,171,4.0,9.0,49,0.00,,---,0.00,,VWS V14.01,2013-04-30 16:55:00,
2013-04-30 12:00:00,78.1,57.4,29.57,South,184,3.0,6.0,49,0.00,,---,0.00,,VWS V14.01,2013-04-30 17:00:00,
2013-04-30 12:05:00,78.4,57.1,29.57,South,170,1.0,7.0,48,0.00,,---,0.00,,VWS V14.01,2013-04-30 17:05:00,
2013-04-30 12:10:00,78.7,56.8,29.57,SSW,202,0.0,5.0,47,0.00,,---,0.00,,VWS V14.01,2013-04-30 17:10:00,
2013-04-30 12:15:00,79.2,56.7,29.57,SSW,194,2.0,11.0,46,0.00,,---,0.00,,VWS V14.01,2013-04-30 17:15:00,
2013-04-30 12:20:00,79.7,57.1,29.57,SSW,195,4.0,4.0,46,0.00,,---,0.00,,VWS V14.01,2013-04-30 17:20:00,
2013-04-30 12:25:00,80.2,57.0,29.57,SSW,207,0.0,7.0,45,0.00,,---,0.00,,VWS V14.01,2013-04-30 17:25:00,
2013-04-30 12:30:00,80.9,57.0,29.57,SW,229,5.0,5.0,44,0.00,,---,0.00,,VWS V14.01,2013-04-30 17:30:00,
2013-04-30 12:35:00,81.3,56.0,29.57,SSW,196,2.0,6.0,42,0.00,,---,0.00,,VWS V14.01,2013-04-30 17:35:00,
2013-04-30 12:40:00,81.3,56.0,29.57,South,173,5.0,7.0,42,0.00,,---,0.00,,VWS V14.01,2013-04-30 17:40:00,
2013-04-30 12:45:00,81.4,56.1,29.57,South,176,2.0,10.0,42,0.00,,---,0.00,,VWS V14.01,2013-04-30 17:45:00,
2013-04-30 12:50:00,82.0,56.7,29.57,South,182,1.0,1.0,42,0.00,,---,0.00,,VWS V14.01,2013-04-30 17:50:00,
2013-04-30 12:55:00,82.4,56.4,29.57,South,176,5.0,8.0,41,0.00,,---,0.00,,VWS V14.01,2013-04-30 17:55:00,
2013-04-30 13:00:00,82.4,56.4,29.57,SSW,195,4.0,6.0,41,0.00,,---,0.00,,VWS V14.01,2013-04-30 18:00:00,
2013-04-30 13:05:00,82.9,56.1,29.57,South,184,3.0,8.0,40,0.00,,---,0.00,,VWS V14.01,2013-04-30 18:05:00,
2013-04-30 13:10:00,83.4,55.2,29.57,South,173,7.0,8.0,38,0.00,,---,0.00,,VWS V14.01,2013-04-30 18:10:00,
2013-04-30 13:15:00,83.1,54.9,29.57,South,184,4.0,11.0,38,0.00,,---,0.00,,VWS V14.01,2013-04-30 18:15:00,
2013-04-30 13:20:00,83.5,56.0,29.57,SSW,211,4.0,6.0,39,0.00,,---,0.00,,VWS V14.01,2013-04-30 18:20:00,
2013-04-30 13:25:00,84.2,56.6,29.57,South,171,5.0,8.0,39,0.00,,---,0.00,,VWS V14.01,2013-04-30 18:25:00,
2013-04-30 13:30:00,84.1,56.5,29.57,SW,218,3.0,5.0,39,0.00,,---,0.00,,VWS V14.01,2013-04-30 18:30:00,
2013-04-30 13:35:00,84.7,55.6,29.57,SSW,198,3.0,10.0,37,0.00,,---,0.00,,VWS V14.01,2013-04-30 18:35:00,
2013-04-30 13:40:00,84.3,55.2,29.57,SSW,203,2.0,3.0,37,0.00,,---,0.00,,VWS V14.01,2013-04-30 18:40:00,
2013-04-30 13:45:00,84.4,56.0,29.57,SSW,192,2.0,5.0,38,0.00,,---,0.00,,VWS V14.01,2013-04-30 18:45:00,
2013-04-30 13:50:00,84.5,55.4,29.57,SSW,210,3.0,5.0,37,0.00,,---,0.00,,VWS V14.01,2013-04-30 18:50:00,
2013-04-30 13:55:00,84.7,54.8,29.57,South,174,4.0,11.0,36,0.00,,---,0.00,,VWS V14.01,2013-04-30 18:55:00,
2013-04-30 14:00:00,85.2,54.5,29.57,South,176,5.0,9.0,35,0.00,,---,0.00,,VWS V14.01,2013-04-30 19:00:00,
2013-04-30 14:05:00,85.0,54.3,29.57,SSW,205,0.0,11.0,35,0.00,,---,0.00,,VWS V14.01,2013-04-30 19:05:00,
2013-04-30 14:10:00,85.2,52.9,29.57,South,178,5.0,6.0,33,0.00,,---,0.00,,VWS V14.01,2013-04-30 19:10:00,
2013-04-30 14:15:00,85.5,54.0,29.58,South,190,3.0,6.0,34,0.00,,---,0.00,,VWS V14.01,2013-04-30 19:15:00,
2013-04-30 14:20:00,85.8,54.2,29.58,South,187,1.0,5.0,34,0.00,,---,0.00,,VWS V14.01,2013-04-30 19:20:00,
2013-04-30 14:25:00,86.2,53.8,29.58,SW,217,2.0,6.0,33,0.00,,---,0.00,,VWS V14.01,2013-04-30 19:25:00,
2013-04-30 14:30:00,86.1,53.7,29.58,SSE,166,4.0,6.0,33,0.00,,---,0.00,,VWS V14.01,2013-04-30 19:30:00,
2013-04-30 14:35:00,85.7,53.3,29.58,SSW,193,4.0,12.0,33,0.00,,---,0.00,,VWS V14.01,2013-04-30 19:35:00,
2013-04-30 14:40:00,85.7,53.3,29.58,SW,217,0.0,1.0,33,0.00,,---,0.00,,VWS V14.01,2013-04-30 19:40:00,
2013-04-30 14:45:00,85.6,53.2,29.59,SSW,196,6.0,7.0,33,0.00,,---,0.00,,VWS V14.01,2013-04-30 19:45:00,
2013-04-30 14:50:00,85.7,54.1,29.58,SSW,192,0.0,1.0,34,0.00,,---,0.00,,VWS V14.01,2013-04-30 19:50:00,
2013-04-30 14:55:00,85.6,54.0,29.59,SSW,198,4.0,6.0,34,0.00,,---,0.00,,VWS V14.01,2013-04-30 19:55:00,
2013-04-30 15:00:00,86.0,52.7,29.59,South,175,2.0,2.0,32,0.00,,---,0.00,,VWS V14.01,2013-04-30 20:00:00,
2013-04-30 15:05:00,86.1,53.7,29.58,South,191,3.0,9.0,33,0.00,,---,0.00,,VWS V14.01,2013-04-30 20:05:00,
2013-04-30 15:10:00,86.5,54.0,29.59,South,171,2.0,3.0,33,0.00,,---,0.00,,VWS V14.01,2013-04-30 20:10:00,
2013-04-30 15:15:00,86.5,53.2,29.59,SSW,197,7.0,17.0,32,0.00,,---,0.00,,VWS V14.01,2013-04-30 20:15:00,
2013-04-30 15:20:00,86.6,53.3,29.59,SSW,194,2.0,3.0,32,0.00,,---,0.00,,VWS V14.01,2013-04-30 20:20:00,
2013-04-30 15:25:00,86.8,55.9,29.59,SSE,165,0.0,5.0,35,0.00,,---,0.00,,VWS V14.01,2013-04-30 20:25:00,
2013-04-30 15:30:00,87.0,53.6,29.59,SSE,165,0.0,0.0,32,0.00,,---,0.00,,VWS V14.01,2013-04-30 20:30:00,
2013-04-30 15:35:00,86.8,53.4,29.59,SSE,165,0.0,0.0,32,0.00,,---,0.00,,VWS V14.01,2013-04-30 20:35:00,
2013-04-30 15:40:00,86.9,53.5,29.59,SSE,165,0.0,0.0,32,0.00,,---,0.00,,VWS V14.01,2013-04-30 20:40:00,
2013-04-30 15:45:00,86.8,52.6,29.59,SSE,165,0.0,0.0,31,0.00,,---,0.00,,VWS V14.01,2013-04-30 20:45:00,
2013-04-30 15:50:00,86.6,52.4,29.59,South,186,4.0,4.0,31,0.00,,---,0.00,,VWS V14.01,2013-04-30 20:50:00,
2013-04-30 15:55:00,86.8,52.6,29.59,SW,225,2.0,11.0,31,0.00,,---,0.00,,VWS V14.01,2013-04-30 20:55:00,
2013-04-30 16:00:00,86.8,52.6,29.60,South,185,3.0,6.0,31,0.00,,---,0.00,,VWS V14.01,2013-04-30 21:00:00,
2013-04-30 16:05:00,86.6,53.3,29.60,South,169,4.0,7.0,32,0.00,,---,0.00,,VWS V14.01,2013-04-30 21:05:00,
2013-04-30 16:10:00,86.7,51.6,29.60,South,176,2.0,3.0,30,0.00,,---,0.00,,VWS V14.01,2013-04-30 21:10:00,
2013-04-30 16:15:00,86.5,53.2,29.60,South,174,4.0,6.0,32,0.00,,---,0.00,,VWS V14.01,2013-04-30 21:15:00,
2013-04-30 16:20:00,87.0,52.7,29.60,SW,229,2.0,3.0,31,0.00,,---,0.00,,VWS V14.01,2013-04-30 21:20:00,
2013-04-30 16:25:00,87.3,52.1,29.60,NNW,340,1.0,6.0,30,0.00,,---,0.00,,VWS V14.01,2013-04-30 21:25:00,
2013-04-30 16:30:00,86.8,51.7,29.61,SSW,197,6.0,7.0,30,0.00,,---,0.00,,VWS V14.01,2013-04-30 21:30:00,
2013-04-30 16:35:00,86.5,50.5,29.61,SSW,208,5.0,9.0,29,0.00,,---,0.00,,VWS V14.01,2013-04-30 21:35:00,
2013-04-30 16:40:00,86.0,50.1,29.61,South,186,1.0,2.0,29,0.00,,---,0.00,,VWS V14.01,2013-04-30 21:40:00,
2013-04-30 16:45:00,86.3,51.2,29.61,SSW,201,2.0,6.0,30,0.00,,---,0.00,,VWS V14.01,2013-04-30 21:45:00,
2013-04-30 16:50:00,86.5,51.4,29.61,SSE,168,5.0,5.0,30,0.00,,---,0.00,,VWS V14.01,2013-04-30 21:50:00,
2013-04-30 16:55:00,86.1,51.1,29.61,South,184,1.0,7.0,30,0.00,,---,0.00,,VWS V14.01,2013-04-30 21:55:00,
2013-04-30 17:00:00,86.2,50.2,29.61,South,184,0.0,1.0,29,0.00,,---,0.00,,VWS V14.01,2013-04-30 22:00:00,
2013-04-30 17:05:00,86.1,51.1,29.61,SSE,168,3.0,7.0,30,0.00,,---,0.00,,VWS V14.01,2013-04-30 22:05:00,
2013-04-30 17:10:00,85.9,50.9,29.61,SSW,201,1.0,3.0,30,0.00,,---,0.00,,VWS V14.01,2013-04-30 22:10:00,
2013-04-30 17:15:00,85.8,49.9,29.62,South,188,7.0,7.0,29,0.00,,---,0.00,,VWS V14.01,2013-04-30 22:15:00,
2013-04-30 17:20:00,85.6,50.7,29.62,South,183,5.0,5.0,30,0.00,,---,0.00,,VWS V14.01,2013-04-30 22:20:00,
2013-04-30 17:25:00,85.5,49.7,29.62,South,182,2.0,7.0,29,0.00,,---,0.00,,VWS V14.01,2013-04-30 22:25:00,
2013-04-30 17:30:00,85.6,50.7,29.62,SW,229,0.0,1.0,30,0.00,,---,0.00,,VWS V14.01,2013-04-30 22:30:00,
2013-04-30 17:35:00,85.6,50.7,29.62,South,171,3.0,19.0,30,0.00,,---,0.00,,VWS V14.01,2013-04-30 22:35:00,
2013-04-30 17:40:00,85.5,50.6,29.63,South,183,4.0,4.0,30,0.00,,---,0.00,,VWS V14.01,2013-04-30 22:40:00,
2013-04-30 17:45:00,85.4,49.6,29.63,South,187,4.0,7.0,29,0.00,,---,0.00,,VWS V14.01,2013-04-30 22:45:00,
2013-04-30 17:50:00,85.2,50.3,29.64,SW,225,4.0,4.0,30,0.00,,---,0.00,,VWS V14.01,2013-04-30 22:50:00,
2013-04-30 17:55:00,84.9,50.0,29.64,SSW,199,5.0,11.0,30,0.00,,---,0.00,,VWS V14.01,2013-04-30 22:55:00,
2013-04-30 18:00:00,84.7,50.8,29.64,South,181,0.0,1.0,31,0.00,,---,0.00,,VWS V14.01,2013-04-30 23:00:00,
2013-04-30 18:05:00,84.5,50.6,29.64,SSE,168,0.0,5.0,31,0.00,,---,0.00,,VWS V14.01,2013-04-30 23:05:00,
2013-04-30 18:10:00,84.3,50.4,29.64,SSW,213,2.0,3.0,31,0.00,,---,0.00,,VWS V14.01,2013-04-30 23:10:00,
2013-04-30 18:15:00,84.2,50.3,29.65,South,184,0.0,5.0,31,0.00,,---,0.00,,VWS V14.01,2013-04-30 23:15:00,
2013-04-30 18:20:00,84.1,50.2,29.65,SW,216,6.0,6.0,31,0.00,,---,0.00,,VWS V14.01,2013-04-30 23:20:00,
2013-04-30 18:25:00,84.0,51.8,29.65,SSW,196,0.0,6.0,33,0.00,,---,0.00,,VWS V14.01,2013-04-30 23:25:00,
2013-04-30 18:30:00,83.8,50.8,29.65,SSW,193,0.0,0.0,32,0.00,,---,0.00,,VWS V14.01,2013-04-30 23:30:00,
2013-04-30 18:35:00,83.8,51.7,29.65,SSW,213,2.0,4.0,33,0.00,,---,0.00,,VWS V14.01,2013-04-30 23:35:00,
2013-04-30 18:40:00,83.6,51.5,29.65,SW,220,2.0,4.0,33,0.00,,---,0.00,,VWS V14.01,2013-04-30 23:40:00,
2013-04-30 18:45:00,83.4,52.1,29.66,SW,225,9.0,10.0,34,0.00,,---,0.00,,VWS V14.01,2013-04-30 23:45:00,
2013-04-30 18:50:00,83.2,52.7,29.66,South,177,0.0,0.0,35,0.00,,---,0.00,,VWS V14.01,2013-04-30 23:50:00,
2013-04-30 18:55:00,83.0,53.3,29.66,SW,230,1.0,4.0,36,0.00,,---,0.00,,VWS V14.01,2013-04-30 23:55:00,
2013-04-30 19:00:00,82.7,53.1,29.66,WSW,258,0.0,0.0,36,0.00,,---,0.00,,VWS V14.01,2013-05-01 00:00:00,
2013-04-30 19:05:00,82.4,53.5,29.66,ESE,119,0.0,3.0,37,0.00,,---,0.00,,VWS V14.01,2013-05-01 00:05:00,
2013-04-30 19:10:00,82.1,53.3,29.67,South,169,1.0,1.0,37,0.00,,---,0.00,,VWS V14.01,2013-05-01 00:10:00,
2013-04-30 19:15:00,81.7,53.7,29.67,South,169,0.0,2.0,38,0.00,,---,0.00,,VWS V14.01,2013-05-01 00:15:00,
2013-04-30 19:20:00,81.4,53.4,29.67,South,169,1.0,1.0,38,0.00,,---,0.00,,VWS V14.01,2013-05-01 00:20:00,
2013-04-30 19:25:00,81.1,53.8,29.67,South,181,0.0,2.0,39,0.00,,---,0.00,,VWS V14.01,2013-05-01 00:25:00,
2013-04-30 19:30:00,80.8,53.6,29.67,WSW,247,0.0,1.0,39,0.00,,---,0.00,,VWS V14.01,2013-05-01 00:30:00,
2013-04-30 19:35:00,80.5,53.3,29.68,WSW,245,0.0,1.0,39,0.00,,---,0.00,,VWS V14.01,2013-05-01 00:35:00,
2013-04-30 19:40:00,80.2,53.7,29.68,West,267,0.0,0.0,40,0.00,,---,0.00,,VWS V14.01,2013-05-01 00:40:00,
2013-04-30 19:45:00,80.0,53.5,29.68,West,267,0.0,1.0,40,0.00,,---,0.00,,VWS V14.01,2013-05-01 00:45:00,
2013-04-30 19:50:00,79.7,53.9,29.68,SW,215,0.0,0.0,41,0.00,,---,0.00,,VWS V14.01,2013-05-01 00:50:00,
2013-04-30 19:55:00,79.4,53.7,29.68,SW,215,0.0,1.0,41,0.00,,---,0.00,,VWS V14.01,2013-05-01 00:55:00,
2013-04-30 20:00:00,79.2,53.5,29.68,SW,215,0.0,0.0,41,0.00,,---,0.00,,VWS V14.01,2013-05-01 01:00:00,
2013-04-30 20:05:00,79.0,54.0,29.69,SW,215,0.0,1.0,42,0.00,,---,0.00,,VWS V14.01,2013-05-01 01:05:00,
2013-04-30 20:10:00,78.7,53.7,29.69,SW,215,0.0,0.0,42,0.00,,---,0.00,,VWS V14.01,2013-05-01 01:10:00,
2013-04-30 20:15:00,78.5,54.2,29.69,SW,215,0.0,1.0,43,0.00,,---,0.00,,VWS V14.01,2013-05-01 01:15:00,
2013-04-30 20:20:00,78.2,53.9,29.69,SW,215,0.0,1.0,43,0.00,,---,0.00,,VWS V14.01,2013-05-01 01:20:00,
2013-04-30 20:25:00,77.9,53.6,29.69,SW,215,0.0,2.0,43,0.00,,---,0.00,,VWS V14.01,2013-05-01 01:25:00,
2013-04-30 20:30:00,77.6,54.0,29.69,SW,215,0.0,0.0,44,0.00,,---,0.00,,VWS V14.01,2013-05-01 01:30:00,
2013-04-30 20:35:00,77.2,53.6,29.69,SW,215,0.0,0.0,44,0.00,,---,0.00,,VWS V14.01,2013-05-01 01:35:00,
2013-04-30 20:40:00,76.8,54.5,29.70,SW,215,0.0,0.0,46,0.00,,---,0.00,,VWS V14.01,2013-05-01 01:40:00,
2013-04-30 20:45:00,76.5,54.2,29.70,SW,215,0.0,0.0,46,0.00,,---,0.00,,VWS V14.01,2013-05-01 01:45:00,
2013-04-30 20:50:00,76.2,54.5,29.70,SW,215,0.0,0.0,47,0.00,,---,0.00,,VWS V14.01,2013-05-01 01:50:00,
2013-04-30 20:55:00,75.9,54.2,29.70,SW,215,0.0,0.0,47,0.00,,---,0.00,,VWS V14.01,2013-05-01 01:55:00,
2013-04-30 21:00:00,75.5,54.5,29.70,SW,215,0.0,0.0,48,0.00,,---,0.00,,VWS V14.01,2013-05-01 02:00:00,
2013-04-30 21:05:00,74.9,54.5,29.70,SW,215,0.0,0.0,49,0.00,,---,0.00,,VWS V14.01,2013-05-01 02:05:00,
2013-04-30 21:10:00,74.3,54.5,29.70,SW,215,0.0,0.0,50,0.00,,---,0.00,,VWS V14.01,2013-05-01 02:10:00,
2013-04-30 21:15:00,73.6,54.9,29.71,SW,215,0.0,0.0,52,0.00,,---,0.00,,VWS V14.01,2013-05-01 02:15:00,
2013-04-30 21:20:00,72.9,54.8,29.71,SW,215,0.0,0.0,53,0.00,,---,0.00,,VWS V14.01,2013-05-01 02:20:00,
2013-04-30 21:25:00,72.4,54.8,29.71,SW,215,0.0,0.0,54,0.00,,---,0.00,,VWS V14.01,2013-05-01 02:25:00,
2013-04-30 21:30:00,72.0,54.5,29.71,SW,215,0.0,0.0,54,0.00,,---,0.00,,VWS V14.01,2013-05-01 02:30:00,
2013-04-30 21:35:00,71.5,54.5,29.72,SW,215,0.0,0.0,55,0.00,,---,0.00,,VWS V14.01,2013-05-01 02:35:00,
2013-04-30 21:40:00,71.0,55.0,29.72,SW,215,0.0,0.0,57,0.00,,---,0.00,,VWS V14.01,2013-05-01 02:40:00,
2013-04-30 21:45:00,70.5,54.5,29.72,SW,215,0.0,0.0,57,0.00,,---,0.00,,VWS V14.01,2013-05-01 02:45:00,
2013-04-30 21:50:00,70.2,54.8,29.72,SW,215,0.0,0.0,58,0.00,,---,0.00,,VWS V14.01,2013-05-01 02:50:00,
2013-04-30 21:55:00,70.1,55.1,29.73,NW,307,4.0,4.0,59,0.00,,---,0.00,,VWS V14.01,2013-05-01 02:55:00,
2013-04-30 22:00:00,69.7,54.3,29.73,NW,317,0.0,5.0,58,0.00,,---,0.00,,VWS V14.01,2013-05-01 03:00:00,
2013-04-30 22:05:00,69.8,53.9,29.73,NW,317,0.0,1.0,57,0.00,,---,0.00,,VWS V14.01,2013-05-01 03:05:00,
2013-04-30 22:10:00,70.1,52.7,29.73,NW,319,2.0,3.0,54,0.00,,---,0.00,,VWS V14.01,2013-05-01 03:10:00,
2013-04-30 22:15:00,70.4,51.4,29.74,NW,319,0.0,3.0,51,0.00,,---,0.00,,VWS V14.01,2013-05-01 03:15:00,
2013-04-30 22:20:00,70.6,50.0,29.74,West,275,0.0,4.0,48,0.00,,---,0.00,,VWS V14.01,2013-05-01 03:20:00,
2013-04-30 22:25:00,70.8,49.6,29.74,WNW,292,0.0,3.0,47,0.00,,---,0.00,,VWS V14.01,2013-05-01 03:25:00,
2013-04-30 22:30:00,70.8,49.6,29.75,WNW,289,0.0,3.0,47,0.00,,---,0.00,,VWS V14.01,2013-05-01 03:30:00,
2013-04-30 22:35:00,70.8,49.6,29.75,North,5,4.0,6.0,47,0.00,,---,0.00,,VWS V14.01,2013-05-01 03:35:00,
2013-04-30 22:40:00,70.8,49.0,29.76,NNE,33,1.0,6.0,46,0.00,,---,0.00,,VWS V14.01,2013-05-01 03:40:00,
2013-04-30 22:45:00,70.8,49.0,29.76,NNW,337,3.0,6.0,46,0.00,,---,0.00,,VWS V14.01,2013-05-01 03:45:00,
2013-04-30 22:50:00,70.7,48.9,29.76,NW,306,2.0,11.0,46,0.00,,---,0.00,,VWS V14.01,2013-05-01 03:50:00,
2013-04-30 22:55:00,70.7,48.9,29.76,NW,306,3.0,9.0,46,0.00,,---,0.00,,VWS V14.01,2013-05-01 03:55:00,
2013-04-30 23:00:00,70.7,48.3,29.76,WNW,296,4.0,10.0,45,0.00,,---,0.00,,VWS V14.01,2013-05-01 04:00:00,
2013-04-30 23:01:00,70.6,48.2,29.76,NNW,334,6.0,7.0,45,0.00,,---,0.00,,VWS V14.01,2013-05-01 04:01:00,
2013-04-30 23:06:00,70.3,47.4,29.77,NNW,344,5.0,12.0,44,0.00,,---,0.00,,VWS V14.01,2013-05-01 04:06:00,
2013-04-30 23:10:00,70.1,47.2,29.77,WNW,289,0.0,12.0,44,0.00,,SCT055,0.00,0.00,VWS V14.01,2013-05-01 04:10:00,
2013-04-30 23:11:00,70.0,47.1,29.77,NNW,333,4.0,4.0,44,0.00,,---,0.00,,VWS V14.01,2013-05-01 04:11:00,
2013-04-30 23:16:00,69.7,46.2,29.78,WNW,290,4.0,10.0,43,0.00,,---,0.00,,VWS V14.01,2013-05-01 04:16:00,
2013-04-30 23:20:00,69.4,44.7,29.78,NW,314,2.0,10.0,41,0.00,,SCT055,0.00,0.00,VWS V14.01,2013-05-01 04:20:00,
2013-04-30 23:21:00,69.2,44.5,29.78,NW,304,3.0,10.0,41,0.00,,---,0.00,,VWS V14.01,2013-05-01 04:21:00,
2013-04-30 23:26:00,68.9,43.0,29.79,NE,51,4.0,11.0,39,0.00,,---,0.00,,VWS V14.01,2013-05-01 04:26:00,
2013-04-30 23:30:00,68.7,41.4,29.79,NW,321,2.0,11.0,37,0.00,,SCT055,0.00,0.00,VWS V14.01,2013-05-01 04:30:00,
2013-04-30 23:31:00,68.6,40.6,29.80,NW,321,5.0,7.0,36,0.00,,---,0.00,,VWS V14.01,2013-05-01 04:31:00,
2013-04-30 23:36:00,68.4,38.2,29.81,NNE,17,5.0,13.0,33,0.00,,---,0.00,,VWS V14.01,2013-05-01 04:36:00,
2013-04-30 23:40:00,68.2,38.0,29.81,North,349,2.0,13.0,33,0.00,,SCT055,0.00,0.00,VWS V14.01,2013-05-01 04:40:00,
2013-04-30 23:41:00,68.1,37.9,29.81,WNW,292,2.0,6.0,33,0.00,,---,0.00,,VWS V14.01,2013-05-01 04:41:00,
2013-04-30 23:46:00,67.7,38.3,29.81,WNW,288,12.0,12.0,34,0.00,,---,0.00,,VWS V14.01,2013-05-01 04:46:00,
2013-04-30 23:50:00,67.3,38.0,29.83,SW,229,7.0,12.0,34,0.00,,SCT055,0.00,0.00,VWS V14.01,2013-05-01 04:50:00,
2013-04-30 23:51:00,67.1,37.8,29.83,NW,312,8.0,8.0,34,0.00,,---,0.00,,VWS V14.01,2013-05-01 04:51:00,
2013-04-30 23:56:00,66.0,38.3,29.83,NNW,348,4.0,15.0,36,0.00,,---,0.00,,VWS V14.01,2013-05-01 04:56:00,